Location: Banff
(51.1667°N, 115.5667°W)
Time: 20:31:13
(UTC+00:00)

Vanguard 1 Rocket - Pass Details

Date: 04 December 2020
Orbit: 655 x 4221 km, 34.3° (Epoch: 17 January)

Event Time Altitude Azimuth Distance (km) Brightness Sun altitude
Exits shadow 13:38:48 13° 264° (W) 6,514 11.2 -16.3°
Maximum altitude 13:51:51 26° 223° (SW) 4,530 10.7 -14.3°
Drops below altitude 10° 14:02:18 10° 173° (S) 4,567 11.3 -12.8°
Sets 14:05:57 0° 160° (SSE) 5,096 11.9 -12.3°
